Santa Monica, CA

11:38 PM PDT on May 23, 2017 (GMT -0700)
Santa Monica Municipal

Weather History for KSMO - March, 2013

Change the Weather History Date:

Thursday, March 7, 2013

  Actual Average Record
Temperature  
Mean Temperature 55 °F -  
Max Temperature 59 °F 68 °F 88 °F (1955)
Min Temperature 51 °F 49 °F 37 °F (1956)
Degree Days  
Heating Degree Days 10    
Growing Degree Days 5 (Base 50)    
Moisture  
Dew Point 49 °F    
Average Humidity 83    
Maximum Humidity 94    
Minimum Humidity 60    
Precipitation  
Precipitation 0.34 in - - ()
Sea Level Pressure  
Sea Level Pressure 29.97 in    
Wind  
Wind Speed 2 mph (SW)    
Max Wind Speed 10 mph    
Max Gust Speed -    
Visibility 9 miles    
Events Rain , Thunderstorm    
Averages and records for this station are not official NWS values.
T = Trace of Precipitation, MM = Missing Value Source: NWS Daily Summary

Daily Weather History Graph

Daily Weather History Graph

Search for Another Location

Airport or City:

Trip Planner

Search our weather history database for the weather conditions in past years. The results will help you decide how hot, cold, wet, or windy it might be!

Date:

Astronomy

Mar. 07, 2013 Rise Set
Actual Time 6:14 AM PST 5:55 PM PST
Civil Twilight 5:49 AM PST 6:20 PM PST
Nautical Twilight 5:20 AM PST 6:49 PM PST
Astronomical Twilight 4:51 AM PST 7:18 PM PST
Moon 3:08 AM PST (3/7) 1:57 PM PST (3/7)
Length of Visible Light 12h 31m
Length of Day
11h 41m
Waning Crescent, 19% of the Moon is Illuminated
Mar 7
Waning Crescent
Mar 11
New
Mar 19
First Quarter
Mar 27
Full
Apr 2
Last Quarter

Hourly Weather History & Observations

Time (PST) Temp. Dew Point Humidity Pressure Visibility Wind Dir Wind Speed Gust Speed Precip Events Conditions
12:00 AM 53.6 °F 51.8 °F 94% 30.02 in 6.0 mi WSW 3.5 mph - N/A   Overcast
12:11 AM 53.6 °F 51.8 °F 94% 30.02 in 8.0 mi Calm Calm - N/A   Overcast
12:21 AM 53.6 °F 51.8 °F 94% 30.01 in 10.0 mi Calm Calm - N/A   Overcast
12:51 AM 53.1 °F 51.1 °F 93% 30.01 in 10.0 mi Calm Calm - N/A   Overcast
1:24 AM 53.6 °F 50.0 °F 88% 30.01 in 10.0 mi Calm Calm - N/A   Overcast
1:51 AM 53.1 °F 51.1 °F 93% 30.01 in 10.0 mi Calm Calm - N/A   Overcast
2:14 AM 53.6 °F 51.8 °F 94% 30.00 in 10.0 mi Calm Calm - N/A   Overcast
2:36 AM 53.6 °F 51.8 °F 94% 30.00 in 9.0 mi Calm Calm - 0.01 in Rain Light Rain
2:49 AM 53.6 °F 50.0 °F 88% 30.00 in 1.8 mi Calm Calm - 0.12 in Rain Heavy Rain
2:51 AM 53.1 °F 50.0 °F 89% 30.00 in 1.5 mi Calm Calm - 0.15 in Rain Heavy Rain
3:00 AM 53.6 °F 51.8 °F 94% 30.00 in 2.5 mi Calm Calm - 0.04 in Rain Rain
3:18 AM 53.6 °F 51.8 °F 94% 30.00 in 4.0 mi Calm Calm - 0.12 in Rain Rain
3:29 AM 53.6 °F 51.8 °F 94% 29.99 in 10.0 mi Calm Calm - 0.12 in   Overcast
3:40 AM 53.6 °F 50.0 °F 88% 29.99 in 10.0 mi Calm Calm - 0.12 in   Mostly Cloudy
3:51 AM 53.1 °F 50.0 °F 89% 29.99 in 10.0 mi Calm Calm - 0.12 in   Mostly Cloudy
4:40 AM 51.8 °F 50.0 °F 94% 29.99 in 10.0 mi Calm Calm - N/A   Scattered Clouds
4:51 AM 52.0 °F 50.0 °F 93% 29.99 in 10.0 mi Calm Calm - N/A   Partly Cloudy
6:51 AM 53.1 °F 51.1 °F 93% 29.99 in 9.0 mi Calm Calm - 0.00 in Rain Light Rain
7:51 AM 54.0 °F 50.0 °F 86% 30.01 in 10.0 mi SSW 3.5 mph - 0.00 in   Mostly Cloudy
8:47 AM 55.4 °F 48.2 °F 77% 30.01 in 10.0 mi Calm Calm - N/A   Overcast
8:51 AM 55.9 °F 50.0 °F 80% 30.01 in 10.0 mi SW 4.6 mph - N/A   Overcast
9:00 AM 55.4 °F 50.0 °F 82% 30.01 in 10.0 mi SSW 5.8 mph - N/A   Overcast
9:51 AM 55.9 °F 48.9 °F 77% 30.01 in 10.0 mi SSW 5.8 mph - N/A   Overcast
10:51 AM 59.0 °F 46.9 °F 64% 30.00 in 10.0 mi Variable 6.9 mph - N/A   Mostly Cloudy
11:51 AM 59.0 °F 46.9 °F 64% 30.00 in 10.0 mi SW 10.4 mph - N/A   Scattered Clouds
12:51 PM 57.9 °F 46.0 °F 65% 29.97 in 10.0 mi WSW 10.4 mph - N/A   Scattered Clouds
1:51 PM 57.9 °F 46.9 °F 67% 29.96 in 10.0 mi SW 9.2 mph - N/A   Scattered Clouds
2:51 PM 57.9 °F 44.1 °F 60% 29.96 in 10.0 mi SW 6.9 mph - N/A   Partly Cloudy
3:51 PM 57.0 °F 44.1 °F 62% 29.95 in 10.0 mi WSW 5.8 mph - N/A   Overcast
4:51 PM 55.9 °F 44.1 °F 64% 29.94 in 10.0 mi SW 5.8 mph - N/A   Mostly Cloudy
5:51 PM 55.9 °F 45.0 °F 67% 29.94 in 10.0 mi SW 5.8 mph - N/A   Overcast
6:51 PM 55.0 °F 48.0 °F 77% 29.93 in 10.0 mi Calm Calm - 0.01 in   Overcast
7:51 PM 54.0 °F 46.9 °F 77% 29.91 in 10.0 mi Calm Calm - N/A   Overcast
8:51 PM 55.9 °F 44.1 °F 64% 29.91 in 10.0 mi Calm Calm - N/A   Overcast
9:51 PM 53.1 °F 48.0 °F 83% 29.89 in 5.0 mi Calm Calm - 0.05 in Rain Light Rain
10:30 PM 51.8 °F 48.2 °F 88% 29.88 in 10.0 mi NE 3.5 mph - 0.00 in Rain Light Rain
10:47 PM 51.8 °F 48.2 °F 88% 29.87 in 10.0 mi Calm Calm - 0.00 in   Overcast
10:51 PM 52.0 °F 48.9 °F 89% 29.87 in 10.0 mi Calm Calm - 0.00 in Rain Light Rain
11:51 PM 54.0 °F 48.9 °F 83% 29.84 in 10.0 mi East 5.8 mph - 0.01 in Rain , Thunderstorm Light Thunderstorms and Rain